Tracking 25693 objects as of 1-Jul-2022
HD Live streaming from Space Station
objects crossing your sky now

STARLINK-3594

Track STARLINK-3594 now!
10-day predictions
STARLINK-3594 is classified as:


NORAD ID: 51895
Int'l Code: 2022-022AV
Perigee: 545.8 km
Apogee: 547.9 km
Inclination: 53.2 °
Period: 95.4 minutes
Semi major axis: 6917 km
RCS: Unknown
Launch date: March 3, 2022
Source: United States (US)
Launch site: AIR FORCE EASTERN TEST RANGE (AFETR)
aabbcc
Your satellite tracking list
Your tracking list is empty




NASA's NSSDC Master Catalog

Two Line Element Set (TLE):
1 51895U 22022AV  22181.91667824 -.00028130  00000-0 -17557-2 0  9996
2 51895  53.2156 289.4921 0001555  44.8681 154.0357 15.08850893  1300
Source of the keplerian elements: AFSPC